Regional Weather Roundup
Issued by NWS

Home | Current Version | Previous Version | Graphics & Text | Print | Product List | Glossary Off
Versions: 1 2 3 4 5 6 7 8 9 10 11 12 13 14 15 16 17 18 19 20 21 22 23 24 25 26 27 28 29 30 31 32 33 34 35 36 37 38 39 40 41 42 43 44 45 46 47 48 49 50

804
ASUS43 KMKX 301621
RWRWI

WISCONSIN REGIONAL WEATHER ROUNDUP
NATIONAL WEATHER SERVICE MILWAUKEE/SULLIVAN WI
1100 AM CDT TUE AUG 30 2016

NOTE: "FAIR" INDICATES FEW OR NO CLOUDS BELOW 12,000 FEET WITH NO
SIGNIFICANT WEATHER AND/OR OBSTRUCTIONS TO VISIBILITY.

WIZ001-002-006>008-014>016-023>028-301700-
NORTHWEST WISCONSIN

CITY           SKY/WX    TMP DP  RH WIND       PRES   REMARKS
SUPERIOR ARPT  MOSUNNY   71  58  63 NE5       30.19R
ASHLAND        MOSUNNY   71  60  68 N6        30.18R
HAYWARD        CLOUDY    70  62  76 N6        30.19S
SIREN          CLOUDY    69  62  79 NE5       30.20S
CUMBERLAND     CLOUDY    68  63  83 N6        30.20S
RICE LAKE      CLOUDY    69  64  85 CALM      30.21R
CHETEK         NOT AVBL
LADYSMITH      CLOUDY    70  65  86 CALM      30.20S
EAU CLAIRE     CLOUDY    76  66  71 W8        30.16S
MENOMONIE      CLOUDY    74  65  74 CALM      30.18S
NEW RICHMOND   CLOUDY    71  65  81 NE5       30.20R
OSCEOLA        CLOUDY    70  70  99 N5        30.22S
$$

WIZ003>005-009-010-017-018-301700-
NORTH CENTRAL WISCONSIN

CITY           SKY/WX    TMP DP  RH WIND       PRES   REMARKS
MANITOWISH WTR NOT AVBL
ARBOR VITAE    CLOUDY    72  67  86 N3        30.17R
WOODRUFF       CLOUDY    72  67  86 N3        30.17R
RHINELANDER    CLOUDY    71  66  84 NW6       30.18R
EAGLE RIVER    CLOUDY    67  66  97 N5        30.17R FOG
LAND O LAKES   PTSUNNY   70  64  82 N6        30.17S
PHILLIPS       CLOUDY    70  65  84 CALM      30.17S
TOMAHAWK       PTSUNNY   73  64  75 W5        30.17R
MEDFORD        NOT AVBL
MERRILL        MOSUNNY   74  66  76 CALM      30.17R
$$

WIZ029-030-035-036-043>047-301700-
CENTRAL WISCONSIN

CITY           SKY/WX    TMP DP  RH WIND       PRES   REMARKS
WAUSAU         MOSUNNY   77  64  64 NW5       30.14R
MOSINEE        NOT AVBL
MARSHFIELD     SUNNY     79  63  57 NW8       30.16S HX  80
STEVENS POINT  CLOUDY    76  61  59 CALM      30.16R
WAUPACA        MOSUNNY   82  62  50 NW5       30.14R HX  83
WAUTOMA        NOT AVBL
WISC RAPIDS    PTSUNNY   80  63  55 N8        30.16S HX  81
CAMP DOUGLAS   PTSUNNY   79  66  65 NW5       30.16R HX  81
$$

WIZ011>013-019>022-031-037>040-048>050-301700-
NORTHEAST WISCONSIN

CITY           SKY/WX    TMP DP  RH WIND       PRES   REMARKS
ANTIGO         SUNNY     76  64  65 CALM      30.16S
SHAWANO        SUNNY     82  70  67 NE6       30.12S HX  85
OCONTO         NOT AVBL
STURGEON BAY   CLOUDY    76  70  82 SW6       30.11F
GREEN BAY      MOSUNNY   78  73  84 VRB3      30.12S HX  81
MANITOWOC      PTSUNNY   78  71  79 CALM      30.12F HX  80
APPLETON       PTSUNNY   75  64  69 VRB5      30.12R
CLINTONVILLE   SUNNY     82  61  47 NW6       30.12S HX  83
OSHKOSH        PTSUNNY   80  66  62 W6        30.13R HX  82
$$

WIZ032>034-041-042-053>061-301700-
SOUTHWEST WISCONSIN

CITY           SKY/WX    TMP DP  RH WIND       PRES   REMARKS
LA CROSSE      PTSUNNY   81  66  60 N6        30.16R HX  83
SPARTA         MOSUNNY   77  63  60 N8        30.17S
VIROQUA        PTSUNNY   77  67  70 N5        30.19R
BOSCOBEL       CLOUDY    81  71  71 VRB5      30.16R HX  85
PRAIRIE DU CHI CLOUDY    79  68  69 W5        30.15R HX  81
PLATTEVILLE    MOSUNNY   78  74  88 S3        30.16R HX  81
$$

WIZ056-057-062-063-064-067-068-301700-
SOUTH CENTRAL WISCONSIN

CITY           SKY/WX    TMP DP  RH WIND       PRES   REMARKS
REEDSBURG      NOT AVBL
BARABOO/DELLS  PTSUNNY   78  62  57 NE3       30.16R HX  80
LONE ROCK      CLOUDY    78  72  81 N8        30.15S HX  80
MINERAL POINT  CLOUDY    79  77  94 NW3       30.17R HX  83
MADISON        PTSUNNY   78  73  84 NW7       30.14R HX  81
MIDDLETON      PTSUNNY   81  74  81 W6        30.15R HX  86
WATERTOWN      PTSUNNY   78  74  90 CALM      30.14R HX  80
MONROE         CLOUDY    77  68  73 SW6       30.15S
JANESVILLE     MOSUNNY   77  72  83 SW6       30.13S
$$

WIZ051-052-058>065-066-070>072-301700-
SOUTHEAST WISCONSIN

CITY           SKY/WX    TMP DP  RH WIND       PRES   REMARKS
MILWAUKEE      CLOUDY    82  70  66 SW7       30.12S HX  86
WAUKESHA       MOSUNNY   75  70  83 W6        30.15S
MILWAUKEE/TIMM SUNNY     79  68  69 W5        30.14R HX  81
RACINE         CLOUDY    81  69  67 VRB3      30.14S HX  84
BURLINGTON     MOSUNNY   80  68  68 SW3       30.13F HX  82
KENOSHA        MOSUNNY   81  71  71 W7        30.13F HX  85
FOND DU LAC    PTSUNNY   80  66  62 W5        30.13F HX  82
SHEBOYGAN      MOSUNNY   80  71  74 NW8       30.13R HX  84
WEST BEND      PTSUNNY   79  70  73 N7        30.13F HX  81
JUNEAU         CLOUDY    76  71  86 NW8       30.15S
$$

LSZ147-162-301700-
LAKE SUPERIOR

STATION/POSITION TIME  TEMP    WIND        PRES    WAVE
                       AIR SEA DIR/SP/G            HT/PER
                 (UTC) (F)     (DEG/KT/KT) (MB)    (FT/S)
W MID LAKE BUOY  1550   66 68  340/  6/  8 1020.4R   1/ 3
DEVILS ISLAND    1600   65     330/  5/  7 1021.8R
PORT WING        1500   66     330/  5/  6 1022.0
SAXON HARBOR     1540   68     320/  7/  9 1021.3R
$$

LMZ867-665-643>646-301700-
LAKE MICHIGAN

STATION/POSITION TIME  TEMP    WIND        PRES    WAVE
                       AIR SEA DIR/SP/G            HT/PER
                 (UTC) (F)     (DEG/KT/KT) (MB)    (FT/S)
CHAMBERS ISLAND  1500   74     170/  5/ 12 1019.3R
S GREEN BAY BUOY 1430   71 72  200/  4/  6 1019.2
N MID LAKE BUOY  1550   71 71  250/  8/ 10 1018.3R   1/ 3
NORTHPORT PIER   1500   76     310/  2/  7 1019.0R
SISTER BAY       1507   80     300/  8/  9   N/A
ALGOMA LAKESHORE 1415          320/ 14/ 19   N/A
KEWAUNEE LAKESHO 1500   76     290/  1/  3 1019.2R
SHEBOYGAN LAKESH 1600   70     140/  6/  6 1019.4R
PORT WASHINGTON  1500   75      CALM  /  3 1020.7S
ATWATER BUOY     1600   71     150/  4/  6   N/A
MILWAUKEE LAKESH 1510   73     140/  9/  9   N/A
S MID LAKE BUOY  1550   74 75  180/ 10/ 12 1019.5S   2/ 3
KENOSHA   LAKESH 1600   75     140/ 11/ 13 1019.6F
$$

TC  - TEMPERATURE IN CELSIUS
VSB - VISIBILITY IN STATUTE MILES
WCI - WIND CHILL INDEX
HX  - HEAT INDEX





USA.gov is the U.S. government's official web portal to all federal, state and local government web resources and services.